AWQ155 VTBD-WIMM

Flight info

Callsign AWQ155
Flight time 1h 37m
Altitude 35000
Route KASNI3C KASNI M757 NULBO/N0448F370 M757 KARMI Y508 ANGUN G468 GOTLA
Aircraft A320/M-SDE3FGHIRWY/LB1

Departure

Time 2026-04-20 12:50
Airport Don Mueang International Airport (VTBD)

Arrival

Time 2026-04-20 14:27
Airport Kualanamu International Airport (WIMM)
Time Latitude Longitude Altitude Speed Heading
2026-04-20 12:32 13.91876 100.60378 17 ft 0 kts 208°
2026-04-20 12:39 13.91878 100.60379 -10 ft 1 kts 208°
2026-04-20 12:39 13.91893 100.60388 19 ft 3 kts 206°
2026-04-20 12:40 13.91912 100.60396 17 ft 3 kts 199°
2026-04-20 12:40 13.91932 100.60402 17 ft 3 kts 182°
2026-04-20 12:40 13.91949 100.60400 18 ft 3 kts 140°
2026-04-20 12:40 13.91954 100.60394 22 ft 0 kts 118°
2026-04-20 12:43 13.91945 100.60411 20 ft 4 kts 118°
2026-04-20 12:43 13.91934 100.60433 17 ft 5 kts 120°
2026-04-20 12:44 13.91908 100.60478 19 ft 10 kts 119°
2026-04-20 12:44 13.91868 100.60548 17 ft 12 kts 121°
2026-04-20 12:44 13.91872 100.60620 17 ft 11 kts 45°
2026-04-20 12:44 13.91928 100.60655 17 ft 9 kts 29°
2026-04-20 12:45 13.91998 100.60694 18 ft 13 kts 28°
2026-04-20 12:45 13.92091 100.60746 18 ft 17 kts 28°
2026-04-20 12:45 13.92190 100.60802 18 ft 14 kts 28°
2026-04-20 12:45 13.92270 100.60847 18 ft 12 kts 28°
2026-04-20 12:46 13.92339 100.60886 18 ft 11 kts 28°
2026-04-20 12:46 13.92409 100.60925 19 ft 13 kts 28°
2026-04-20 12:46 13.92501 100.60976 17 ft 15 kts 28°
2026-04-20 12:46 13.92589 100.61025 17 ft 13 kts 28°
2026-04-20 12:47 13.92647 100.61084 17 ft 11 kts 83°
2026-04-20 12:47 13.92617 100.61154 16 ft 12 kts 120°
2026-04-20 12:47 13.92558 100.61202 18 ft 9 kts 155°
2026-04-20 12:47 13.92552 100.61257 16 ft 9 kts 93°
2026-04-20 12:48 13.92526 100.61324 18 ft 11 kts 119°
2026-04-20 12:48 13.92487 100.61395 16 ft 12 kts 118°
2026-04-20 12:48 13.92444 100.61477 17 ft 13 kts 118°
2026-04-20 12:48 13.92365 100.61504 14 ft 13 kts 199°
2026-04-20 12:49 13.92343 100.61492 15 ft 7 kts 208°
2026-04-20 12:49 13.92070 100.61339 16 ft 79 kts 209°
2026-04-20 12:49 13.91667 100.61113 18 ft 117 kts 208°
2026-04-20 12:49 13.90788 100.60633 25 ft 163 kts 206°
2026-04-20 12:50 13.89733 100.60068 580 ft 163 kts 206°
2026-04-20 12:50 13.88738 100.59527 1299 ft 159 kts 206°
2026-04-20 12:50 13.87880 100.58732 1582 ft 183 kts 239°
2026-04-20 12:50 13.87396 100.57444 1796 ft 207 kts 244°
2026-04-20 12:51 13.86841 100.55903 2065 ft 228 kts 245°
2026-04-20 12:51 13.86254 100.54290 2362 ft 252 kts 245°
2026-04-20 12:51 13.85610 100.52529 2915 ft 265 kts 246°
2026-04-20 12:51 13.84962 100.50757 3655 ft 270 kts 246°
2026-04-20 12:52 13.84287 100.48940 4462 ft 273 kts 245°
2026-04-20 12:52 13.83227 100.47314 5193 ft 275 kts 226°
2026-04-20 12:52 13.81908 100.45871 6010 ft 277 kts 227°
2026-04-20 12:52 13.80568 100.44428 6750 ft 280 kts 227°
2026-04-20 12:53 13.79146 100.43001 7460 ft 285 kts 218°
2026-04-20 12:53 13.77342 100.42084 7900 ft 296 kts 194°
2026-04-20 12:53 13.75274 100.41999 8585 ft 300 kts 175°
2026-04-20 12:53 13.73184 100.42204 9348 ft 302 kts 175°
2026-04-20 12:54 13.71056 100.42488 9970 ft 310 kts 165°
2026-04-20 12:54 13.69024 100.43242 10353 ft 324 kts 159°
2026-04-20 12:54 13.66812 100.44134 10500 ft 347 kts 158°
2026-04-20 12:54 13.64436 100.45100 11005 ft 355 kts 158°
2026-04-20 12:55 13.62150 100.46028 11581 ft 361 kts 158°
2026-04-20 12:55 13.59771 100.46990 12232 ft 363 kts 158°
2026-04-20 12:55 13.57415 100.47940 12913 ft 365 kts 158°
2026-04-20 12:55 13.55045 100.48897 13576 ft 366 kts 158°
2026-04-20 12:56 13.52670 100.49854 14148 ft 368 kts 158°
2026-04-20 12:56 13.50279 100.50818 14705 ft 370 kts 158°
2026-04-20 12:56 13.47872 100.51789 15233 ft 373 kts 158°
2026-04-20 12:56 13.45454 100.52767 15769 ft 375 kts 158°
2026-04-20 12:57 13.43017 100.53751 16313 ft 377 kts 158°
2026-04-20 12:57 13.40568 100.54737 16828 ft 380 kts 158°
2026-04-20 12:57 13.38094 100.55732 17344 ft 383 kts 158°
2026-04-20 12:57 13.35606 100.56733 17847 ft 385 kts 158°
2026-04-20 12:58 13.33105 100.57739 18309 ft 388 kts 157°
2026-04-20 12:58 13.30580 100.58757 18695 ft 392 kts 158°
2026-04-20 12:58 13.28003 100.59798 19102 ft 395 kts 157°
2026-04-20 12:58 13.25435 100.60834 19490 ft 399 kts 157°
2026-04-20 12:59 13.22837 100.61879 19876 ft 402 kts 157°
2026-04-20 12:59 13.20221 100.62932 20287 ft 405 kts 157°
2026-04-20 12:59 13.17596 100.63992 20683 ft 407 kts 157°
2026-04-20 12:59 13.14945 100.65061 21060 ft 410 kts 157°
2026-04-20 13:00 13.12277 100.66134 21444 ft 413 kts 157°
2026-04-20 13:00 13.09567 100.67133 21811 ft 416 kts 163°
2026-04-20 13:00 13.06709 100.67681 22180 ft 420 kts 174°
2026-04-20 13:00 13.03773 100.67721 22543 ft 424 kts 181°
2026-04-20 13:01 13.00816 100.67633 22906 ft 427 kts 181°
2026-04-20 13:01 12.97831 100.67550 23254 ft 430 kts 180°
2026-04-20 13:01 12.94840 100.67473 23569 ft 432 kts 180°
2026-04-20 13:01 12.91826 100.67396 23864 ft 434 kts 180°
2026-04-20 13:02 12.88793 100.67318 24170 ft 436 kts 180°
2026-04-20 13:02 12.85747 100.67242 24469 ft 438 kts 180°
2026-04-20 13:02 12.82654 100.67167 24777 ft 441 kts 180°
2026-04-20 13:02 12.79579 100.67094 25072 ft 443 kts 181°
2026-04-20 13:03 12.76496 100.67016 25352 ft 445 kts 181°
2026-04-20 13:03 12.73390 100.66933 25655 ft 447 kts 181°
2026-04-20 13:03 12.70273 100.66846 25945 ft 449 kts 181°
2026-04-20 13:03 12.67149 100.66759 26229 ft 451 kts 181°
2026-04-20 13:04 12.64002 100.66674 26519 ft 453 kts 181°
2026-04-20 13:04 12.60843 100.66591 26776 ft 455 kts 181°
2026-04-20 13:04 12.57671 100.66511 27043 ft 457 kts 181°
2026-04-20 13:04 12.55568 100.66457 27223 ft 458 kts 181°
2026-04-20 13:05 12.52362 100.66372 27480 ft 460 kts 181°
2026-04-20 13:05 12.49165 100.66286 27756 ft 462 kts 181°
2026-04-20 13:05 12.45888 100.66199 28014 ft 464 kts 181°
2026-04-20 13:05 12.42660 100.66115 28271 ft 466 kts 181°
2026-04-20 13:06 12.39407 100.66033 28526 ft 469 kts 181°
2026-04-20 13:06 12.36143 100.65951 28767 ft 471 kts 181°
2026-04-20 13:06 12.32862 100.65870 29037 ft 472 kts 181°
2026-04-20 13:06 12.29575 100.65787 29290 ft 474 kts 181°
2026-04-20 13:07 12.26272 100.65701 29540 ft 475 kts 181°
2026-04-20 13:07 12.22952 100.65612 29782 ft 477 kts 181°
2026-04-20 13:07 12.19627 100.65524 29993 ft 479 kts 181°
2026-04-20 13:07 12.16294 100.65434 30199 ft 480 kts 181°
2026-04-20 13:08 12.12904 100.65343 30392 ft 482 kts 181°
2026-04-20 13:08 12.09588 100.65255 30589 ft 483 kts 181°
2026-04-20 13:08 12.06179 100.65165 30791 ft 484 kts 181°
2026-04-20 13:08 12.02799 100.65080 31006 ft 485 kts 181°
2026-04-20 13:09 11.99475 100.64999 31299 ft 484 kts 181°
2026-04-20 13:09 11.96070 100.64915 31587 ft 483 kts 181°
2026-04-20 13:09 11.92710 100.64829 31868 ft 482 kts 181°
2026-04-20 13:09 11.89356 100.64742 32156 ft 482 kts 181°
2026-04-20 13:10 11.86011 100.64655 32435 ft 481 kts 182°
2026-04-20 13:10 11.82666 100.64568 32718 ft 480 kts 181°
2026-04-20 13:10 11.79328 100.64486 33029 ft 479 kts 181°
2026-04-20 13:10 11.76004 100.64405 33319 ft 478 kts 181°
2026-04-20 13:11 11.72683 100.64324 33615 ft 477 kts 181°
2026-04-20 13:11 11.69359 100.64244 33899 ft 477 kts 182°
2026-04-20 13:11 11.66045 100.64161 34145 ft 476 kts 182°
2026-04-20 13:11 11.62737 100.64077 34387 ft 475 kts 182°
2026-04-20 13:12 11.59426 100.63992 34614 ft 475 kts 182°
2026-04-20 13:12 11.56117 100.63906 34800 ft 475 kts 182°
2026-04-20 13:12 11.52822 100.63821 34858 ft 471 kts 182°
2026-04-20 13:13 11.46256 100.63655 34862 ft 468 kts 182°
2026-04-20 13:13 11.39756 100.63493 34863 ft 467 kts 182°
2026-04-20 13:14 11.33256 100.63327 34865 ft 467 kts 182°
2026-04-20 13:14 11.26758 100.63163 34866 ft 467 kts 182°
2026-04-20 13:15 11.20259 100.62997 34866 ft 467 kts 182°
2026-04-20 13:15 11.13758 100.62842 34869 ft 467 kts 181°
2026-04-20 13:16 11.07212 100.62679 34872 ft 467 kts 182°
2026-04-20 13:16 11.00726 100.62507 34875 ft 466 kts 182°
2026-04-20 13:17 10.94246 100.62340 34874 ft 465 kts 182°
2026-04-20 13:17 10.87779 100.62177 34875 ft 465 kts 182°
2026-04-20 13:18 10.81310 100.62011 34873 ft 465 kts 181°
2026-04-20 13:18 10.74845 100.61853 34871 ft 465 kts 182°
2026-04-20 13:19 10.68374 100.61698 34877 ft 465 kts 182°
2026-04-20 13:19 10.61911 100.61537 34875 ft 465 kts 182°
2026-04-20 13:20 10.55453 100.61371 34873 ft 465 kts 182°
2026-04-20 13:20 10.48948 100.61204 34879 ft 464 kts 182°
2026-04-20 13:21 10.42485 100.61049 34882 ft 464 kts 181°
2026-04-20 13:21 10.36025 100.60891 34883 ft 464 kts 181°
2026-04-20 13:22 10.29574 100.60728 34883 ft 463 kts 181°
2026-04-20 13:22 10.23124 100.60567 34881 ft 463 kts 181°
2026-04-20 13:23 10.16693 100.60410 34883 ft 463 kts 181°
2026-04-20 13:23 10.10241 100.60255 34886 ft 463 kts 181°
2026-04-20 13:24 10.03811 100.60102 34876 ft 463 kts 181°
2026-04-20 13:24 9.97370 100.59946 34881 ft 462 kts 181°
2026-04-20 13:25 9.90900 100.59782 34876 ft 462 kts 181°
2026-04-20 13:25 9.84476 100.59623 34878 ft 462 kts 181°
2026-04-20 13:26 9.78052 100.59474 34877 ft 462 kts 181°
2026-04-20 13:26 9.71628 100.59325 34877 ft 461 kts 181°
2026-04-20 13:27 9.65204 100.59170 34874 ft 462 kts 181°
2026-04-20 13:27 9.58734 100.59008 34877 ft 461 kts 181°
2026-04-20 13:28 9.52322 100.58851 34887 ft 461 kts 181°
2026-04-20 13:28 9.45913 100.58695 34878 ft 461 kts 181°
2026-04-20 13:29 9.39500 100.58542 34878 ft 461 kts 181°
2026-04-20 13:29 9.33044 100.58390 34884 ft 461 kts 181°
2026-04-20 13:30 9.26637 100.58237 34880 ft 461 kts 181°
2026-04-20 13:30 9.20233 100.58089 34875 ft 461 kts 181°
2026-04-20 13:31 9.13811 100.57937 34882 ft 461 kts 181°
2026-04-20 13:31 9.08441 100.57803 34879 ft 461 kts 181°
2026-04-20 13:32 9.02027 100.57648 34878 ft 461 kts 181°
2026-04-20 13:32 8.95613 100.57492 34880 ft 461 kts 181°
2026-04-20 13:33 8.89198 100.57341 34875 ft 461 kts 180°
2026-04-20 13:33 8.82793 100.57197 34872 ft 460 kts 180°
2026-04-20 13:34 8.76384 100.57052 34874 ft 460 kts 181°
2026-04-20 13:34 8.69992 100.56896 34875 ft 459 kts 180°
2026-04-20 13:35 8.63592 100.56749 34875 ft 459 kts 180°
2026-04-20 13:35 8.57213 100.56603 34873 ft 459 kts 180°
2026-04-20 13:36 8.50783 100.56456 34874 ft 459 kts 180°
2026-04-20 13:36 8.44401 100.56308 34865 ft 459 kts 180°
2026-04-20 13:37 8.38018 100.56162 34862 ft 459 kts 181°
2026-04-20 13:37 8.31628 100.56014 34868 ft 459 kts 180°
2026-04-20 13:38 8.25202 100.55859 34870 ft 459 kts 180°
2026-04-20 13:38 8.18856 100.55711 34868 ft 459 kts 181°
2026-04-20 13:39 8.12433 100.55555 34868 ft 459 kts 180°
2026-04-20 13:39 8.06046 100.55403 34867 ft 459 kts 180°
2026-04-20 13:40 7.99663 100.55257 34874 ft 459 kts 180°
2026-04-20 13:40 7.93272 100.55107 34876 ft 459 kts 180°
2026-04-20 13:41 7.86885 100.54959 34876 ft 459 kts 181°
2026-04-20 13:41 7.80495 100.54814 34875 ft 459 kts 181°
2026-04-20 13:42 7.74114 100.54666 34874 ft 459 kts 180°
2026-04-20 13:42 7.64533 100.54435 34868 ft 459 kts 180°
2026-04-20 13:43 7.58141 100.54293 34871 ft 459 kts 180°
2026-04-20 13:43 7.51715 100.54149 34869 ft 459 kts 181°
2026-04-20 13:44 7.45326 100.54006 34867 ft 459 kts 181°
2026-04-20 13:44 7.38943 100.53888 34879 ft 458 kts 181°
2026-04-20 13:45 7.32579 100.53777 34879 ft 457 kts 181°
2026-04-20 13:45 7.26165 100.53665 34878 ft 457 kts 181°
2026-04-20 13:46 7.19808 100.53553 34877 ft 457 kts 181°
2026-04-20 13:46 7.13462 100.53438 34873 ft 457 kts 181°
2026-04-20 13:47 7.07097 100.53320 34884 ft 457 kts 181°
2026-04-20 13:47 7.00696 100.53199 34885 ft 456 kts 181°
2026-04-20 13:48 6.94351 100.53078 34880 ft 456 kts 181°
2026-04-20 13:48 6.88009 100.52962 34877 ft 455 kts 181°
2026-04-20 13:49 6.81678 100.52844 34878 ft 455 kts 181°
2026-04-20 13:49 6.75350 100.52726 34885 ft 455 kts 181°
2026-04-20 13:50 6.69019 100.52609 34905 ft 455 kts 181°
2026-04-20 13:50 6.62654 100.52491 34912 ft 454 kts 181°
2026-04-20 13:51 6.56330 100.52375 34912 ft 454 kts 181°
2026-04-20 13:51 6.50010 100.52157 34912 ft 453 kts 188°
2026-04-20 13:52 6.43908 100.50643 34913 ft 452 kts 197°
2026-04-20 13:52 6.37863 100.48867 34905 ft 452 kts 197°
2026-04-20 13:53 6.31825 100.47105 34893 ft 452 kts 197°
2026-04-20 13:53 6.25780 100.45337 34878 ft 452 kts 197°
2026-04-20 13:54 6.19714 100.43563 34882 ft 451 kts 197°
2026-04-20 13:54 6.13678 100.41812 34884 ft 451 kts 197°
2026-04-20 13:55 6.07649 100.40056 34880 ft 451 kts 197°
2026-04-20 13:55 6.02635 100.38597 34882 ft 451 kts 197°
2026-04-20 13:56 5.96600 100.36841 34882 ft 451 kts 197°
2026-04-20 13:56 5.89565 100.34783 34882 ft 451 kts 197°
2026-04-20 13:57 5.84515 100.33306 34877 ft 450 kts 197°
2026-04-20 13:57 5.78498 100.31553 34873 ft 450 kts 197°
2026-04-20 13:58 5.72484 100.29797 34875 ft 450 kts 197°
2026-04-20 13:58 5.66457 100.28046 34861 ft 450 kts 197°
2026-04-20 13:59 5.60441 100.26298 34872 ft 450 kts 197°
2026-04-20 13:59 5.54423 100.24547 34878 ft 449 kts 197°
2026-04-20 14:00 5.48340 100.22773 34882 ft 449 kts 197°
2026-04-20 14:00 5.42340 100.21033 34882 ft 448 kts 197°
2026-04-20 14:01 5.36353 100.19285 34884 ft 448 kts 197°
2026-04-20 14:01 5.30366 100.17534 34876 ft 448 kts 197°
2026-04-20 14:02 5.24337 100.15792 34876 ft 448 kts 196°
2026-04-20 14:02 5.18348 100.14058 34880 ft 448 kts 196°
2026-04-20 14:03 5.12697 100.11515 34887 ft 446 kts 214°
2026-04-20 14:03 5.08004 100.07448 34892 ft 446 kts 223°
2026-04-20 14:04 5.03454 100.03191 34866 ft 449 kts 223°
2026-04-20 14:04 5.01155 100.01045 34275 ft 454 kts 223°
2026-04-20 14:04 4.98827 99.98870 33356 ft 461 kts 223°
2026-04-20 14:05 4.96475 99.96670 32597 ft 462 kts 223°
2026-04-20 14:05 4.94132 99.94477 31925 ft 461 kts 224°
2026-04-20 14:05 4.91787 99.92285 31277 ft 460 kts 223°
2026-04-20 14:05 4.89457 99.90109 30720 ft 457 kts 223°
2026-04-20 14:06 4.87137 99.87942 30177 ft 454 kts 223°
2026-04-20 14:06 4.84833 99.85786 29591 ft 452 kts 223°
2026-04-20 14:06 4.82541 99.83639 29011 ft 448 kts 223°
2026-04-20 14:06 4.80277 99.81519 28452 ft 444 kts 223°
2026-04-20 14:07 4.78024 99.79413 27906 ft 441 kts 223°
2026-04-20 14:07 4.75788 99.77326 27319 ft 439 kts 223°
2026-04-20 14:07 4.73573 99.75258 26832 ft 434 kts 223°
2026-04-20 14:07 4.71372 99.73204 26327 ft 430 kts 223°
2026-04-20 14:08 4.69198 99.71171 25830 ft 426 kts 223°
2026-04-20 14:08 4.67040 99.69153 25338 ft 422 kts 223°
2026-04-20 14:08 4.64872 99.67126 24811 ft 420 kts 223°
2026-04-20 14:08 4.62748 99.65139 24328 ft 417 kts 223°
2026-04-20 14:09 4.60635 99.63165 23867 ft 413 kts 223°
2026-04-20 14:09 4.58530 99.61200 23383 ft 410 kts 223°
2026-04-20 14:09 4.56469 99.59275 22883 ft 406 kts 224°
2026-04-20 14:09 4.54393 99.57333 22370 ft 403 kts 223°
2026-04-20 14:10 4.52350 99.55426 21872 ft 400 kts 224°
2026-04-20 14:10 4.50319 99.53532 21403 ft 397 kts 223°
2026-04-20 14:10 4.48316 99.51657 20968 ft 393 kts 224°
2026-04-20 14:10 4.46341 99.49779 20534 ft 389 kts 224°
2026-04-20 14:11 4.44392 99.47906 20085 ft 387 kts 225°
2026-04-20 14:11 4.42461 99.46041 19657 ft 384 kts 225°
2026-04-20 14:11 4.40555 99.44197 19199 ft 378 kts 225°
2026-04-20 14:11 4.38673 99.42379 18455 ft 374 kts 224°
2026-04-20 14:12 4.36811 99.40586 17747 ft 368 kts 225°
2026-04-20 14:12 4.34998 99.38845 17307 ft 353 kts 224°
2026-04-20 14:12 4.33255 99.37175 16886 ft 341 kts 224°
2026-04-20 14:12 4.31555 99.35543 16481 ft 338 kts 225°
2026-04-20 14:13 4.29860 99.33916 16083 ft 338 kts 225°
2026-04-20 14:13 4.28264 99.32197 15661 ft 338 kts 231°
2026-04-20 14:13 4.26738 99.30398 15209 ft 339 kts 230°
2026-04-20 14:13 4.25202 99.28596 14761 ft 341 kts 231°
2026-04-20 14:14 4.23651 99.26779 14307 ft 343 kts 231°
2026-04-20 14:14 4.22106 99.24962 13859 ft 344 kts 230°
2026-04-20 14:14 4.20548 99.23127 13366 ft 346 kts 230°
2026-04-20 14:14 4.18974 99.21274 12897 ft 344 kts 231°
2026-04-20 14:15 4.17451 99.19482 12456 ft 331 kts 230°
2026-04-20 14:15 4.15979 99.17750 12033 ft 322 kts 230°
2026-04-20 14:15 4.14542 99.16058 11610 ft 318 kts 231°
2026-04-20 14:15 4.13112 99.14378 11194 ft 313 kts 230°
2026-04-20 14:16 4.11723 99.12748 10832 ft 306 kts 230°
2026-04-20 14:16 4.10344 99.11128 10465 ft 305 kts 231°
2026-04-20 14:16 4.08975 99.09517 10073 ft 303 kts 231°
2026-04-20 14:16 4.07610 99.07910 9661 ft 301 kts 231°
2026-04-20 14:17 4.06260 99.06320 9264 ft 297 kts 231°
2026-04-20 14:17 4.04926 99.04752 9060 ft 287 kts 231°
2026-04-20 14:17 4.03642 99.03242 8743 ft 282 kts 231°
2026-04-20 14:17 4.02367 99.01742 8386 ft 283 kts 231°
2026-04-20 14:18 4.01095 99.00244 8017 ft 281 kts 231°
2026-04-20 14:18 3.99827 98.98754 7608 ft 280 kts 231°
2026-04-20 14:18 3.98569 98.97279 7191 ft 278 kts 231°
2026-04-20 14:18 3.97314 98.95816 6804 ft 276 kts 229°
2026-04-20 14:19 3.95740 98.94695 6399 ft 276 kts 201°
2026-04-20 14:19 3.93873 98.94452 6060 ft 271 kts 172°
2026-04-20 14:19 3.92139 98.95080 5759 ft 263 kts 144°
2026-04-20 14:19 3.90798 98.96279 5460 ft 255 kts 134°
2026-04-20 14:20 3.89557 98.97496 5186 ft 243 kts 134°
2026-04-20 14:20 3.88377 98.98651 4952 ft 232 kts 134°
2026-04-20 14:20 3.87240 98.99766 4726 ft 228 kts 135°
2026-04-20 14:20 3.86107 99.00876 4477 ft 228 kts 134°
2026-04-20 14:21 3.85344 99.01625 4312 ft 227 kts 135°
2026-04-20 14:21 3.84228 99.02716 4060 ft 221 kts 136°
2026-04-20 14:21 3.82980 99.03527 3838 ft 210 kts 162°
2026-04-20 14:21 3.81567 99.03704 3687 ft 203 kts 188°
2026-04-20 14:22 3.80249 99.03289 3501 ft 197 kts 213°
2026-04-20 14:22 3.79230 99.02431 3309 ft 188 kts 228°
2026-04-20 14:22 3.78318 99.01522 3114 ft 182 kts 227°
2026-04-20 14:22 3.77424 99.00637 2924 ft 178 kts 227°
2026-04-20 14:23 3.76551 98.99774 2729 ft 176 kts 227°
2026-04-20 14:23 3.75669 98.98899 2535 ft 176 kts 228°
2026-04-20 14:23 3.74803 98.98038 2367 ft 175 kts 228°
2026-04-20 14:23 3.73946 98.97186 2167 ft 170 kts 228°
2026-04-20 14:24 3.73125 98.96367 2048 ft 164 kts 228°
2026-04-20 14:24 3.72323 98.95565 1916 ft 160 kts 228°
2026-04-20 14:24 3.71539 98.94782 1737 ft 156 kts 228°
2026-04-20 14:24 3.70785 98.94031 1548 ft 152 kts 228°
2026-04-20 14:25 3.70040 98.93288 1358 ft 149 kts 229°
2026-04-20 14:25 3.69296 98.92546 1172 ft 148 kts 229°
2026-04-20 14:25 3.68566 98.91818 981 ft 147 kts 227°
2026-04-20 14:25 3.67850 98.91104 803 ft 147 kts 226°
2026-04-20 14:26 3.67105 98.90362 632 ft 143 kts 227°
2026-04-20 14:26 3.66394 98.89654 447 ft 145 kts 224°
2026-04-20 14:26 3.65689 98.88950 270 ft 143 kts 225°
2026-04-20 14:26 3.64999 98.88263 86 ft 140 kts 226°
2026-04-20 14:27 3.64350 98.87613 35 ft 103 kts 224°
2026-04-20 14:27 3.63964 98.87227 37 ft 54 kts 225°
2026-04-20 14:27 3.63778 98.87041 37 ft 32 kts 223°
2026-04-20 14:27 3.63623 98.86898 37 ft 29 kts 225°
2026-04-20 14:28 3.63483 98.86756 36 ft 28 kts 225°
2026-04-20 14:28 3.63344 98.86617 35 ft 32 kts 225°
2026-04-20 14:28 3.63168 98.86442 36 ft 38 kts 224°
2026-04-20 14:28 3.63003 98.86336 35 ft 22 kts 207°
2026-04-20 14:29 3.62915 98.86303 38 ft 8 kts 197°
2026-04-20 14:29 3.62866 98.86306 39 ft 6 kts 157°
2026-04-20 14:29 3.62836 98.86329 39 ft 8 kts 120°
2026-04-20 14:29 3.62858 98.86391 39 ft 10 kts 45°
2026-04-20 14:30 3.62906 98.86438 39 ft 9 kts 45°
2026-04-20 14:30 3.62965 98.86496 39 ft 14 kts 45°
2026-04-20 14:30 3.63048 98.86579 39 ft 18 kts 44°
2026-04-20 14:30 3.63128 98.86659 39 ft 15 kts 45°
2026-04-20 14:31 3.63198 98.86729 39 ft 14 kts 45°
2026-04-20 14:31 3.63263 98.86794 39 ft 12 kts 44°
2026-04-20 14:31 3.63321 98.86851 39 ft 12 kts 44°
2026-04-20 14:31 3.63391 98.86920 39 ft 17 kts 44°
2026-04-20 14:32 3.63489 98.87015 39 ft 22 kts 44°
2026-04-20 14:32 3.63592 98.87120 39 ft 20 kts 45°
2026-04-20 14:32 3.63686 98.87213 39 ft 18 kts 44°
2026-04-20 14:32 3.63773 98.87300 39 ft 17 kts 45°
2026-04-20 14:33 3.63847 98.87375 39 ft 14 kts 52°
2026-04-20 14:33 3.63836 98.87455 40 ft 12 kts 102°
2026-04-20 14:33 3.63867 98.87521 40 ft 11 kts 45°
2026-04-20 14:33 3.63934 98.87587 40 ft 16 kts 44°
2026-04-20 14:34 3.63992 98.87645 40 ft 18 kts 45°
2026-04-20 14:34 3.64101 98.87754 40 ft 16 kts 45°
2026-04-20 14:34 3.64181 98.87833 40 ft 18 kts 44°
2026-04-20 14:34 3.64243 98.87893 40 ft 15 kts 45°
2026-04-20 14:35 3.64294 98.87970 40 ft 12 kts 91°
2026-04-20 14:35 3.64249 98.88031 40 ft 10 kts 135°
2026-04-20 14:35 3.64189 98.88090 40 ft 13 kts 135°
2026-04-20 14:35 3.64128 98.88140 40 ft 10 kts 167°
2026-04-20 14:36 3.64068 98.88105 40 ft 13 kts 224°
2026-04-20 14:36 3.63997 98.88034 40 ft 15 kts 225°
2026-04-20 14:36 3.63924 98.87969 39 ft 13 kts 203°
2026-04-20 14:36 3.63846 98.87999 40 ft 12 kts 135°
2026-04-20 14:37 3.63796 98.88048 40 ft 9 kts 135°
2026-04-20 14:37 3.63753 98.88038 39 ft 6 kts 221°
2026-04-20 14:37 3.63722 98.88008 40 ft 6 kts 225°
2026-04-20 14:37 3.63720 98.88005 40 ft 0 kts 225°
2026-04-20 14:38 3.63717 98.88003 40 ft 0 kts 225°